星链-33676 (STARLINK-33676)

导读 | 豆包AI

STARLINK-33676是美国SpaceX星链(Starlink)星座的一员,于2025年3月31日发射入轨。星链项目旨在通过部署近地轨道卫星网络,为全球提供高速低延迟宽带互联网服务,填补偏远地区网络覆盖空白,同时支持民用、商用及特殊场景接入需求。作为新一代星链卫星,它延续了批量生产的设计思路,助力SpaceX扩容星座规模,完善全球覆盖能力,目前已在轨稳定运行近一年,参与支撑星链网络的服务能力提升。

Basic Information
目录编号:
63403
目录名称:
STARLINK-33676
国际标识:
2025-065E
轨道中心:
EARTH
卫星名称:
星链-33676
卫星全名:
星链-33676 (STARLINK-33676)
卫星状态:
在轨 (已飞行394 天)
发射日期:
2025-03-31 UTC
国别 :
美国 (US)
星等 :
--
Orbit Information
数据来源 国际轨道数据 AOE轨道数据
星历时间 2026-04-29T18:37:13+0800
11小时前
查看轨道信息
2026-04-23T08:00:00+0800
6天前
查看轨道信息
半长轴 6861.165km 6861.251km
偏心率 0.0001412 0.0002323
轨道倾角 42.999° 43.001°
近地点辐角 269.069° 286.989°
升交点赤经 180.306° 216.692°
平近点角 91.000° 242.305°
近地点 482.059km 481.52km
远地点 483.997km 484.708km
周期 94.266分钟 94.268分钟
每日圈数 15.275872 15.275586
Detailed Information
固有亮度:
5
最大亮度:
2.5
卫星平台:
Starlink V1.0
覆盖范围:
全球
运营商:
太空探索技术公司
运营商所在国:
美国
制造商(研发单位):
太空探索技术公司
制造商所在国:
美国
使用方式:
暂无
Satellite Introduction
Starlink 计划是 SpaceX 推出的全球卫星互联网项目,通过发射低轨道卫星,为全球尤其是偏远地区提供高速、低延迟的互联网服务。自 2019 年起,Starlink 已部署数千颗卫星,旨在缩小全球数字鸿沟,推动互联网普及。该项目还为军事、航空等行业提供通信支持,带来广泛经济效益。
2D Orbit Map
3D Orbit Map
Orbit Altitude Analysis Chart
Orbit Inclination Analysis Chart
Orbit Comprehensive Analysis Chart
View Comprehensive Chart